Natchez, MS

1:08 PM CST on November 20, 2019 (GMT -0600)
Hardy-Anders-Adams County

Weather History for KHEZ - September, 2019

Change the Weather History Date:

Tuesday, September 3, 2019

  Actual Average Record
Temperature  
Mean Temperature 81 °F -  
Max Temperature 93 °F 89 °F 102 °F (1951)
Min Temperature 69 °F 70 °F 57 °F (1952)
Cooling Degree Days 16    
Growing Degree Days 31 (Base 50)    
Moisture  
Dew Point 71 °F    
Average Humidity 70    
Maximum Humidity 97    
Minimum Humidity 44    
Precipitation  
Precipitation 0.00 in - - ()
Sea Level Pressure  
Sea Level Pressure 29.97 in    
Wind  
Wind Speed 3 mph (ENE)    
Max Wind Speed 10 mph    
Max Gust Speed -    
Visibility 10 miles    
Events      
Averages and records for this station are not official NWS values.
T = Trace of Precipitation, MM = Missing Value Source: NWS Daily Summary

Daily Weather History Graph

Daily Weather History Graph

Search for Another Location

Airport or City:

Astronomy

Sep. 03, 2019 Rise Set
Actual Time 6:41 AM CDT 7:26 PM CDT
Civil Twilight 6:17 AM CDT 7:51 PM CDT
Nautical Twilight 5:48 AM CDT 8:20 PM CDT
Astronomical Twilight 5:18 AM CDT 8:50 PM CDT
Moon 11:17 AM CDT (9/3) 10:42 PM CDT (9/3)
Length of Visible Light 13h 34m
Length of Day
12h 44m
Waxing Crescent, 25% of the Moon is Illuminated
Sep 3
Waxing Crescent
Sep 5
First Quarter
Sep 13
Full
Sep 21
Last Quarter
Sep 28
New

Hourly Weather History & Observations

Time (CDT) Temp. Heat Index Dew Point Humidity Pressure Visibility Wind Dir Wind Speed Gust Speed Precip Events Conditions
12:56 AM 75.0 °F - 71.1 °F 87% 29.98 in 10.0 mi NE 3.5 mph - N/A   Clear
1:56 AM 73.0 °F - 70.0 °F 90% 29.97 in 10.0 mi Calm Calm - N/A   Clear
2:56 AM 71.1 °F - 70.0 °F 96% 29.96 in 10.0 mi Calm Calm - N/A   Clear
3:56 AM 70.0 °F - 69.1 °F 97% 29.96 in 10.0 mi Calm Calm - N/A   Clear
4:56 AM 70.0 °F - 69.1 °F 97% 29.96 in 10.0 mi Calm Calm - N/A   Clear
5:56 AM 69.1 °F - 68.0 °F 96% 29.98 in 10.0 mi North 3.5 mph - N/A   Clear
6:56 AM 69.1 °F - 68.0 °F 96% 29.99 in 10.0 mi Calm Calm - N/A   Clear
7:56 AM 75.0 °F - 71.1 °F 87% 30.01 in 10.0 mi Variable 3.5 mph - N/A   Clear
8:56 AM 82.0 °F 86.7 °F 72.0 °F 71% 30.01 in 10.0 mi NE 4.6 mph - N/A   Clear
9:56 AM 86.0 °F 92.2 °F 72.0 °F 63% 30.01 in 10.0 mi East 10.4 mph - N/A   Clear
10:56 AM 88.0 °F 94.7 °F 72.0 °F 59% 30.01 in 9.0 mi East 5.8 mph - N/A   Clear
11:56 AM 90.0 °F 96.4 °F 71.1 °F 54% 30.00 in 10.0 mi Variable 5.8 mph - N/A   Mostly Cloudy
12:56 PM 90.0 °F 95.4 °F 70.0 °F 52% 29.98 in 10.0 mi East 6.9 mph - N/A   Partly Cloudy
1:21 PM 91.4 °F 96.8 °F 69.8 °F 49% 29.99 in 2.5 mi East 6.9 mph - N/A   Haze
1:30 PM 91.4 °F 96.8 °F 69.8 °F 49% 29.98 in 10.0 mi East 4.6 mph - N/A   Clear
1:56 PM 91.9 °F 97.4 °F 70.0 °F 48% 29.97 in 10.0 mi Variable 4.6 mph - N/A   Scattered Clouds
2:56 PM 93.9 °F 99.1 °F 69.1 °F 44% 29.94 in 7.0 mi ESE 8.1 mph - N/A   Clear
3:56 PM 91.9 °F 96.9 °F 69.1 °F 47% 29.93 in 10.0 mi NNE 4.6 mph - N/A   Partly Cloudy
4:09 PM 93.2 °F 98.8 °F 69.8 °F 46% 29.94 in 10.0 mi ENE 5.8 mph - N/A   Scattered Clouds
4:56 PM 91.9 °F 96.9 °F 69.1 °F 47% 29.93 in 10.0 mi North 3.5 mph - N/A   Scattered Clouds
5:31 PM 91.4 °F 96.8 °F 69.8 °F 49% 29.93 in 10.0 mi Variable 3.5 mph - N/A   Scattered Clouds
5:56 PM 91.9 °F 96.9 °F 69.1 °F 47% 29.93 in 10.0 mi NNE 5.8 mph - N/A   Partly Cloudy
6:56 PM 89.1 °F 96.0 °F 72.0 °F 57% 29.94 in 10.0 mi Calm Calm - N/A   Mostly Cloudy
7:56 PM 82.0 °F 87.9 °F 73.9 °F 76% 29.96 in 10.0 mi Calm Calm - N/A   Clear
8:56 PM 78.1 °F - 73.0 °F 84% 29.97 in 10.0 mi Calm Calm - N/A   Clear
9:56 PM 77.0 °F - 73.0 °F 88% 29.98 in 10.0 mi Calm Calm - N/A   Clear
10:56 PM 75.0 °F - 73.0 °F 94% 29.98 in 10.0 mi Calm Calm - N/A   Clear
11:56 PM 73.9 °F - 72.0 °F 93% 29.98 in 10.0 mi Calm Calm - N/A   Clear